This demonstration page uses our WeatherBlox Daily Observations layout. Learn more.

Left ArrowRight Arrow

39.29038, -76.61219

Hourly Observations for August 10, 2020

Temp ( °F °C ) Dew Point ( °F °C ) Humidity (%) Winds ( mph kmh ) Pressure ( in mb ) Visibility ( mi km ) Precip ( " mm )
12:54 am 00:54 Mostly Clear 78 25.6 74 23.3 87 87 SSW 3 6 30.06 1018 10 16 0.00 0.00
1:54 am 01:54 Clear 77 25 74 23.3 90 90 Calm 30.06 1018 10 16 0.00 0.00
2:54 am 02:54 Clear 77 25 73 22.8 88 88 SW 3 6 30.05 1018 10 16 0.00 0.00
3:54 am 03:54 Mostly Clear 76 24.4 73 22.8 91 91 WSW 5 7 30.05 1018 10 16 0.00 0.00
4:54 am 04:54 Mostly Clear 76 24.4 73 22.8 91 91 SW 5 7 30.05 1018 10 16 0.00 0.00
5:54 am 05:54 Clear with Mist and Fog 76 24.4 73 22.8 91 91 SW 3 6 30.06 1018 6 10 0.00 0.00
6:54 am 06:54 Sunny with Mist and Fog 75 23.9 73 22.8 94 94 Calm 30.06 1018 6 10 0.00 0.00
7:54 am 07:54 Sunny 79 26.1 74 23.3 85 85 W 3 6 30.06 1018 10 16 0.00 0.00
8:54 am 08:54 Sunny 84 28.9 73 22.8 70 70 VRB 3 6 30.05 1018 10 16 0.00 0.00
9:54 am 09:54 Mostly Sunny 85 29.4 73 22.8 68 68 WNW 3 6 30.06 1018 10 16 0.00 0.00
10:54 am 10:54 Mostly Sunny 89 31.7 74 23.3 61 61 SW 3 6 30.05 1018 10 16 0.00 0.00
11:54 am 11:54 Partly Cloudy 91 32.8 66 18.9 44 44 Calm 30.05 1018 10 16 0.00 0.00
12:54 pm 12:54 Partly Cloudy 92 33.3 67 19.4 44 44 Calm 30.04 1017 10 16 0.00 0.00
1:54 pm 13:54 Mostly Cloudy 91 32.8 69 20.6 49 49 VRB 5 7 30.01 1016 10 16 0.00 0.00
2:54 pm 14:54 Mostly Cloudy 93 33.9 70 21.1 47 47 VRB 3 6 30.00 1016 10 16 0.00 0.00
3:54 pm 15:54 Partly Cloudy 92 33.3 71 21.7 51 51 SE 7 11 29.99 1016 10 16 0.00 0.00
4:54 pm 16:54 Mostly Sunny 91 32.8 69 20.6 49 49 SE 10 17 29.97 1015 10 16 0.00 0.00
5:54 pm 17:54 Mostly Sunny 90 32.2 68 20 48 48 SE 9 15 29.96 1015 10 16 0.00 0.00
6:54 pm 18:54 Partly Cloudy 88 31.1 71 21.7 57 57 S 8 13 29.95 1014 10 16 0.00 0.00
7:54 pm 19:54 Mostly Sunny 85 29.4 73 22.8 68 68 SSE 7 11 29.95 1014 10 16 0.00 0.00
8:54 pm 20:54 Mostly Clear 83 28.3 74 23.3 74 74 SSE 5 7 29.95 1014 10 16 0.00 0.00
9:54 pm 21:54 Clear 82 27.8 74 23.3 77 77 SSE 5 7 29.97 1015 10 16 0.00 0.00
10:54 pm 22:54 Mostly Clear 81 27.2 74 23.3 79 79 Calm 29.98 1015 10 16 0.00 0.00
11:54 pm 23:54 Clear 79 26.1 74 23.3 85 85 SSE 3 6 29.97 1015 10 16 0.00 0.00

Powered by AerisWeather